"Pseudo-MPEC" for C02CKU2

Created 2019 Jan 16 14:18:09 UT using Find_Orb

Click here for an explanation of pseudo-MPECs

 
 Astrometry: 
     C02CKU2  C2019 01 12.30150 05 46 41.57 -06 43 41.3    ~1C8I 20.3 GVNEOCPG96
     C02CKU2  C2019 01 12.30713 05 46 44.57 -06 46 39.2    ~1C8I 19.9 GVNEOCPG96
     C02CKU2  C2019 01 12.31838 05 46 50.47 -06 52 31.4    ~1C8I 20.2 GVNEOCPG96
     C02CKU2  C2019 01 12.39171 05 47 29.67 -07 30 09.7    ~1CAI       VNEOCPG96
     C02CKU2  C2019 01 12.39195 05 47 29.78 -07 30 17.1    ~1CAI       VNEOCPG96
     C02CKU2  C2019 01 12.39218 05 47 29.93 -07 30 24.3    ~1CAI       VNEOCPG96
     C02CKU2  C2019 01 12.39241 05 47 30.03 -07 30 31.6    ~1CAI 20.6 GVNEOCPG96
     C02CKU2  C2019 01 12.39278 05 47 30.22 -07 30 43.9    ~1CAI 20.4 GVNEOCPI52
     C02CKU2  C2019 01 12.39388 05 47 30.82 -07 31 16.2    ~1CAI 20.3 GVNEOCPI52
     C02CKU2  C2019 01 12.39499 05 47 31.39 -07 31 49.5    ~1CAI 20.5 GVNEOCPI52
     C02CKU2  C2019 01 12.39610 05 47 32.00 -07 32 23.4    ~1CAI 21.2 GVNEOCPI52
     C02CKU2 KC2019 01 12sM]I\14xgl$?8=Astrometry20hTWA6m-QH+M*G1=Jn=[(o#Nsvf474
     C02CKU2 KC2019 01 125)x\j)*uW4!Xr(nj=P_t$3qEWYv6B^%%\aJeredacted;EEvZ!T4474
     C02CKU2 KC2019 01 12#(\jy'GYW]U;4QW^q#^m7_K2lSveS)!C\)jo:(JVD9-Vw$Y5Lpt(474
     C02CKU2 KC2019 01 129jX:3:wWclick08_4H^MUn%4M::wiBPpFgk_WISj+!(C;kSDGIht474
     C02CKU2 |C2019 01 136u5#@N4D[XfZDcu`.N*/u-QI%4telcVAR3bH`aZ(:Fki`qEcFRno807
     C02CKU2 |C2019 01 13ap^t2vhererWNbKtS;5-fZJ3f?\x!OP26!Kd3ia`Irh1w=?8RLY2807
     C02CKU2 |C2019 01 13q.%uo#FZjiu*9Gs$D6C7hppGR=DOhS.j($G(88q3vd4oiX_2oM\?807
     C02CKU2 |C2019 01 15cC3K3oO[wAMH.I3B?VUXBJ,YDg%!q_:Lj'usr;iu#mfor.Ff!D`%807
     C02CKU2 |C2019 01 15MaBlUI6\D/S=$Bl(5(!r)F2bP,fBoP]kv8:2N_u'VT$H6mIN!o`=807
     C02CKU2 |C2019 01 15,KD(=^nlwiM-CQ/3EeQH9,qJpl-[`2explanation`*n$BJt,w')807

Station data:
(474) Mount John Observatory, Lake Tekapo  (S43.987388 E170.464960)  New
   Zealand.  Observers A. C. Gilmore, P. M. Kilmartin. Measurer P. M.
   Kilmartin. 1.0-m f/7.7 reflector + CCD.
(807) Cerro Tololo Observatory, La Serena  (S30.169136 W70.805900)  Chile.
   1.5-m Ritchey-Chrétien.
(G96) Mt. Lemmon Survey  (N32.442754 W110.788720)  US/Arizona.  Observers B.
   M. Africano, E. J. Christensen, G. A. Farneth, D. C. Fuls, A. R. Gibbs, A.
   D. Grauer, H. Groeller, J. A. Johnson, R. A. Kowalski, S. M. Larson, G. J.
   Leonard, R. L. Seaman, F. C. Shelly. 1.5-m reflector + 10K CCD.
(I52) Steward Observatory, Mt. Lemmon Station  (N32.442547 W110.788920)
   US/Arizona.  Observers B. M. Africano, E. J. Christensen, G. A. Farneth,
   D. C. Fuls, A. R. Gibbs, A. D. Grauer, H. Groeller, J. A. Johnson, R. A.
   Kowalski, S. M. Larson, G. J. Leonard, R. L. Seaman, F. C. Shelly. 1.0-m
   reflector + CCD.

Orbital elements:  C02CKU2
   Perihelion 2018 Nov 27.652229 +/- 0.027 TT = 15:39:12 (JD 2458450.152229)
Epoch 2019 Jan 15.0 TT = JDT 2458498.5   Earth MOID: 0.0137   Ma: 0.0020
M  33.60702635 +/- 0.046            (J2000 ecliptic)          AutoNEOCP
n   0.69511015 +/- 0.000571         Peri.  127.76342 +/- 0.024
a   1.26211897 +/- 0.000691         Node   288.95611 +/- 0.0006
e   0.2749482 +/- 0.000406          Incl.   22.20313 +/- 0.020
P   1.42/517.89d           H 26.7   G  0.15   U  7.7  
q 0.91510154 +/- 1.81e-5    Q 1.60913639 +/- 0.00139
From 21 observations 2019 Jan. 12-15; mean residual 0".60
Residuals in arcseconds: 
190112 G96  .21-  2.1-    190112 I52  .00   .63-    190112 474  .41-  .20-    
190112 G96  .38+  2.0-    190112 I52  .01+  .32+    190113 807  .13+  .32-    
190112 G96  .03+  .05-    190112 I52  .50-  .55+    190113 807  .04+  .12-    
190112 G96  .48+  1.2+    190112 I52  .43-  .16+    190113 807  .02-  .25-    
190112 G96  .17+  1.1+    190112 474  .39+  .06+    190115 807  .01-  .07+    
190112 G96  .54+  .83+    190112 474  .03-  .01+    190115 807  .10-  .05+    
190112 G96  .17+  .48+    190112 474  .30-  .75+    190115 807  .08+  .03-    

Ephemerides (geocentric):
Date (UTC) HH   RA              Dec         delta   r     elong  mag " sig PA
---- -- -- --  -------------   -----------  ------ ------ -----  --- ---- ---
2019 01 16 14  06 10 32.704   -24 45 40.13  .05922 1.0213 128.1 22.5 .270 113
2019 01 16 15  06 10 40.141   -24 50 26.83  .05954 1.0214 128.0 22.5 .274 114
2019 01 16 16  06 10 47.516   -24 55 10.33  .05985 1.0216 128.0 22.5 .278 115
2019 01 16 17  06 10 54.827   -24 59 50.69  .06017 1.0217 127.9 22.5 .282 115
2019 01 16 18  06 11 02.077   -25 04 27.95  .06049 1.0219 127.8 22.5 .286 116
2019 01 16 19  06 11 09.267   -25 09 02.16  .06081 1.0221 127.8 22.6 .291 116
2019 01 16 20  06 11 16.396   -25 13 33.37  .06113 1.0222 127.7 22.6 .295 117
2019 01 16 21  06 11 23.466   -25 18 01.62  .06144 1.0224 127.6 22.6 .299 117
2019 01 16 22  06 11 30.479   -25 22 26.95  .06176 1.0225 127.6 22.6 .303 118
2019 01 16 23  06 11 37.433   -25 26 49.41  .06208 1.0227 127.5 22.6 .307 118
2019 01 17 00  06 11 44.332   -25 31 09.05  .06240 1.0228 127.5 22.6 .311 119
2019 01 17 01  06 11 51.174   -25 35 25.89  .06272 1.0230 127.4 22.6 .315 119
2019 01 17 02  06 11 57.961   -25 39 40.00  .06304 1.0232 127.3 22.7 .319 120
2019 01 17 03  06 12 04.694   -25 43 51.39  .06336 1.0233 127.3 22.7 .324 120
2019 01 17 04  06 12 11.373   -25 48 00.13  .06368 1.0235 127.2 22.7 .328 121
2019 01 17 05  06 12 18.000   -25 52 06.23  .06400 1.0236 127.2 22.7 .332 121
2019 01 17 06  06 12 24.574   -25 56 09.75  .06432 1.0238 127.1 22.7 .336 121
2019 01 17 07  06 12 31.096   -26 00 10.71  .06464 1.0239 127.0 22.7 .340 122
2019 01 17 08  06 12 37.568   -26 04 09.16  .06496 1.0241 127.0 22.7 .344 122
2019 01 17 09  06 12 43.990   -26 08 05.13  .06528 1.0243 126.9 22.7 .348 122
2019 01 17 10  06 12 50.362   -26 11 58.65  .06559 1.0244 126.9 22.8 .352 123
2019 01 17 11  06 12 56.686   -26 15 49.77  .06591 1.0246 126.8 22.8 .356 123
2019 01 17 12  06 13 02.961   -26 19 38.51  .06623 1.0247 126.7 22.8 .360 124
2019 01 17 13  06 13 09.189   -26 23 24.91  .06656 1.0249 126.7 22.8 .364 124
2019 01 17 14  06 13 15.370   -26 27 08.99  .06688 1.0250 126.6 22.8 .368 124
2019 01 17 15  06 13 21.504   -26 30 50.80  .06720 1.0252 126.6 22.8 .372 124
2019 01 17 16  06 13 27.593   -26 34 30.37  .06752 1.0254 126.5 22.8 .376 125
2019 01 17 17  06 13 33.636   -26 38 07.72  .06784 1.0255 126.5 22.8 .380 125
2019 01 17 18  06 13 39.636   -26 41 42.88  .06816 1.0257 126.4 22.8 .384 125
2019 01 17 19  06 13 45.591   -26 45 15.89  .06848 1.0258 126.4 22.9 .387 126
2019 01 17 20  06 13 51.502   -26 48 46.77  .06880 1.0260 126.3 22.9 .391 126
2019 01 17 21  06 13 57.371   -26 52 15.55  .06912 1.0261 126.3 22.9 .395 126
2019 01 17 22  06 14 03.197   -26 55 42.27  .06944 1.0263 126.2 22.9 .399 127
2019 01 17 23  06 14 08.982   -26 59 06.94  .06976 1.0265 126.2 22.9 .403 127
2019 01 18 00  06 14 14.725   -27 02 29.60  .07008 1.0266 126.1 22.9 .407 127
2019 01 18 01  06 14 20.428   -27 05 50.27  .07040 1.0268 126.1 22.9 .410 127
2019 01 18 02  06 14 26.090   -27 09 08.98  .07072 1.0269 126.0 22.9 .414 128
2019 01 18 03  06 14 31.712   -27 12 25.76  .07105 1.0271 126.0 22.9 .418 128
2019 01 18 04  06 14 37.296   -27 15 40.63  .07137 1.0273 125.9 23.0 .422 128
2019 01 18 05  06 14 42.840   -27 18 53.61  .07169 1.0274 125.9 23.0 .425 128
2019 01 18 06  06 14 48.346   -27 22 04.73  .07201 1.0276 125.8 23.0 .429 129
2019 01 18 07  06 14 53.814   -27 25 14.01  .07233 1.0277 125.8 23.0 .433 129
2019 01 18 08  06 14 59.245   -27 28 21.48  .07265 1.0279 125.7 23.0 .437 129
2019 01 18 09  06 15 04.639   -27 31 27.17  .07298 1.0280 125.7 23.0 .440 129
2019 01 18 10  06 15 09.997   -27 34 31.08  .07330 1.0282 125.6 23.0 .444 129
2019 01 18 11  06 15 15.318   -27 37 33.25  .07362 1.0284 125.6 23.0 .447 130
2019 01 18 12  06 15 20.604   -27 40 33.70  .07394 1.0285 125.5 23.0 .451 130
2019 01 18 13  06 15 25.854   -27 43 32.45  .07426 1.0287 125.5 23.1 .455 130